This is the latest recevied weather packets stored in our database for station/object WB9TLH-11. If no packets are shown the sender has not sent any weather packets the latest 1 day(s).
| Time | Temp. | Humidity | Pressure | Rain* | Wind** | Luminosity | Snow |
|---|---|---|---|---|---|---|---|
| 1778025051 | 9.44° C | 90% | 1008.1 hPa | 2.29 mm | 0 m/s | - | - |
| 1778024751 | 9.44° C | 90% | 1007.3 hPa | 3.05 mm | 0 m/s | - | - |
| 1778024451 | 9.44° C | 89% | 1007.1 hPa | 4.32 mm | 0 m/s | - | - |
| 1778024151 | 9.44° C | 89% | 1006.9 hPa | 4.83 mm | 0 m/s | - | - |
| 1778023851 | 9.44° C | 89% | 1007.7 hPa | 4.57 mm | 0 m/s | - | - |
| 1778023551 | 9.44° C | 89% | 1007.2 hPa | 4.57 mm | 0 m/s | - | - |
| 1778023251 | 9.44° C | 89% | 1007.1 hPa | 4.32 mm | 0 m/s | - | - |
| 1778022951 | 9.44° C | 89% | 1007.7 hPa | 4.32 mm | 0 m/s | - | - |
| 1778022651 | 9.44° C | 89% | 1007.8 hPa | 4.57 mm | 0 m/s | - | - |
| 1778022351 | 10° C | 89% | 1007.9 hPa | 4.57 mm | 0 m/s | - | - |
| 1778022051 | 10° C | 89% | 1007.5 hPa | 4.32 mm | 0 m/s | - | - |
| 1778021751 | 10° C | 89% | 1007.4 hPa | 4.57 mm | 0 m/s | - | - |
| 1778021451 | 10.56° C | 89% | 1007.4 hPa | 4.32 mm | 0 m/s | - | - |
| 1778021151 | 10.56° C | 88% | 1007.7 hPa | 3.81 mm | 0.45 m/s, 59° | - | - |
| 1778020851 | 11.11° C | 88% | 1008 hPa | 2.54 mm | 0.45 m/s, 282° | - | - |
| 1778020551 | 11.11° C | 88% | 1007.7 hPa | 2.29 mm | 0.45 m/s, 282° | - | - |
| 1778020251 | 12.22° C | 89% | 1007.2 hPa | 2.29 mm | 0 m/s | - | - |
| 1778019951 | 12.22° C | 89% | 1007.1 hPa | 2.29 mm | 0 m/s | - | - |
| 1778019651 | 12.22° C | 89% | 1006.8 hPa | 2.29 mm | 0 m/s | - | - |
| 1778019351 | 12.22° C | 89% | 1006.9 hPa | 2.03 mm | 0 m/s | - | - |
| 1778019051 | 12.78° C | 89% | 1007.4 hPa | 1.78 mm | 0.45 m/s, 282° | - | - |
| 1778018751 | 12.78° C | 89% | 1007.4 hPa | 1.52 mm | 0.45 m/s, 282° | - | - |
| 1778018451 | 13.33° C | 89% | 1007.1 hPa | 1.27 mm | 0.45 m/s, 282° | - | - |
| 1778018151 | 13.33° C | 89% | 1007.1 hPa | 1.02 mm | 0.45 m/s, 282° | - | - |
| 1778017851 | 13.89° C | 90% | 1006.9 hPa | 0.76 mm | 0.45 m/s, 282° | - | - |
* Rain latest hour (hover to see other rain measurements)
** Current wind speed in m/s (hover to see current wind gust speed)